QPF
0.11 0.09 0.08 0.07 0.08 0.07 0.06 0.06 0.05 0.05 0.04 0.04 0.04 0.04 0.03 0.02 0.02 0.01 0.01 0.01 0.01 0.01 0.00 0.01 0.01 0.01 0.02 0.02 0.02 0.02 0.02 0.02 0.02 0.01 0.00 0.00 0.00 0.00 0.00 0.00 0.00 0.00 0.00
0.08 0.07 0.08 0.07 0.07 0.06 0.06 0.07 0.06 0.05 0.05 0.04 0.03 0.03 0.03 0.03 0.03 0.02 0.02 0.02 0.01 0.01 0.01 0.00 0.00 0.01 0.01 0.01 0.01 0.01 0.01 0.01 0.02 0.01 0.01 0.01 0.01 0.00 0.00 0.00 0.00 0.00 0.00
0.04 0.04 0.05 0.06 0.06 0.06 0.05 0.05 0.05 0.05 0.04 0.03 0.02 0.02 0.02 0.02 0.02 0.02 0.02 0.02 0.02 0.01 0.01 0.01 0.00 0.00 0.00 0.00 0.01 0.01 0.01 0.02 0.02 0.01 0.01 0.01 0.00 0.00 0.00 0.00 0.00 0.00 0.00
0.03 0.03 0.03 0.04 0.04 0.04 0.04 0.04 0.03 0.03 0.03 0.03 0.03 0.02 0.02 0.01 0.01 0.01 0.01 0.01 0.02 0.02 0.02 0.01 0.01 0.00 0.00 0.00 0.00 0.00 0.01 0.01 0.01 0.01 0.01 0.01 0.00 0.00 0.00 0.00 0.00 0.00 0.00
0.02 0.02 0.03 0.03 0.03 0.03 0.03 0.03 0.03 0.02 0.02 0.02 0.01 0.02 0.02 0.02 0.01 0.01 0.01 0.01 0.01 0.02 0.01 0.01 0.01 0.01 0.01 0.01 0.01 0.01 0.01 0.01 0.02 0.02 0.01 0.01 0.01 0.01 0.01 0.01 0.01 0.01 0.01
0.02 0.02 0.02 0.03 0.03 0.03 0.03 0.03 0.03 0.02 0.02 0.02 0.01 0.01 0.01 0.01 0.02 0.01 0.01 0.01 0.01 0.01 0.01 0.01 0.01 0.01 0.01 0.01 0.01 0.01 0.01 0.02 0.02 0.03 0.02 0.02 0.02 0.02 0.02 0.01 0.02 0.02 0.02
0.02 0.01 0.02 0.02 0.02 0.03 0.03 0.03 0.02 0.02 0.02 0.01 0.01 0.01 0.01 0.01 0.02 0.02 0.01 0.01 0.01 0.01 0.01 0.01 0.01 0.01 0.01 0.01 0.01 0.01 0.01 0.01 0.02 0.02 0.02 0.02 0.03 0.02 0.02 0.02 0.02 0.03 0.03
0.01 0.01 0.01 0.02 0.02 0.02 0.02 0.02 0.02 0.02 0.02 0.01 0.01 0.01 0.01 0.01 0.01 0.02 0.02 0.02 0.01 0.01 0.01 0.01 0.01 0.01 0.01 0.01 0.01 0.01 0.01 0.01 0.01 0.01 0.02 0.02 0.02 0.02 0.02 0.02 0.02 0.02 0.01
0.01 0.01 0.01 0.02 0.02 0.02 0.02 0.02 0.01 0.02 0.02 0.02 0.02 0.01 0.01 0.01 0.01 0.01 0.02 0.02 0.02 0.01 0.01 0.00 0.00 0.01 0.01 0.01 0.01 0.01 0.01 0.01 0.01 0.01 0.01 0.01 0.01 0.01 0.02 0.02 0.02 0.02 0.01
0.01 0.02 0.02 0.02 0.03 0.03 0.03 0.03 0.02 0.02 0.03 0.03 0.02 0.02 0.01 0.01 0.01 0.01 0.01 0.01 0.02 0.02 0.01 0.01 0.01 0.01 0.01 0.01 0.01 0.01 0.01 0.01 0.01 0.01 0.01 0.01 0.01 0.01 0.01 0.02 0.02 0.02 0.02
0.01 0.01 0.02 0.02 0.02 0.02 0.03 0.03 0.02 0.03 0.03 0.03 0.03 0.02 0.01 0.01 0.01 0.01 0.01 0.01 0.01 0.01 0.01 0.02 0.01 0.01 0.01 0.01 0.01 0.01 0.01 0.01 0.01 0.00 0.00 0.00 0.01 0.01 0.01 0.01 0.02 0.02 0.03
0.01 0.02 0.02 0.02 0.02 0.02 0.02 0.03 0.03 0.03 0.03 0.03 0.02 0.02 0.01 0.01 0.01 0.01 0.02 0.02 0.01 0.01 0.01 0.01 0.01 0.02 0.01 0.01 0.01 0.01 0.01 0.00 0.00 0.00 0.00 0.01 0.01 0.01 0.01 0.01 0.01 0.01 0.02
0.02 0.02 0.02 0.02 0.02 0.03 0.03 0.03 0.03 0.03 0.03 0.02 0.02 0.02 0.02 0.01 0.01 0.01 0.02 0.02 0.02 0.01 0.01 0.01 0.01 0.02 0.01 0.01 0.01 0.01 0.00 0.00 0.00 0.00 0.01 0.01 0.01 0.01 0.01 0.01 0.01 0.01 0.01
0.03 0.03 0.03 0.03 0.02 0.02 0.02 0.02 0.02 0.02 0.02 0.02 0.02 0.02 0.02 0.02 0.02 0.01 0.02 0.02 0.02 0.01 0.01 0.01 0.01 0.01 0.01 0.01 0.01 0.01 0.00 0.00 0.00 0.01 0.01 0.01 0.01 0.01 0.01 0.01 0.01 0.01 0.01
0.03 0.04 0.03 0.03 0.02 0.02 0.02 0.02 0.02 0.01 0.01 0.01 0.01 0.01 0.01 0.01 0.01 0.01 0.01 0.01 0.02 0.02 0.01 0.01 0.01 0.01 0.01 0.01 0.01 0.01 0.00 0.00 0.00 0.00 0.01 0.01 0.01 0.01 0.01 0.01 0.00 0.01 0.01
0.03 0.03 0.03 0.03 0.02 0.02 0.02 0.02 0.02 0.02 0.02 0.01 0.01 0.01 0.01 0.01 0.01 0.01 0.01 0.01 0.02 0.02 0.02 0.01 0.01 0.01 0.01 0.01 0.01 0.01 0.01 0.01 0.01 0.01 0.01 0.01 0.01 0.01 0.01 0.00 0.00 0.01 0.01
0.03 0.03 0.03 0.03 0.03 0.02 0.02 0.02 0.02 0.02 0.02 0.02 0.02 0.02 0.02 0.02 0.02 0.02 0.01 0.02 0.02 0.02 0.02 0.02 0.02 0.02 0.02 0.02 0.01 0.01 0.01 0.01 0.01 0.01 0.01 0.01 0.01 0.01 0.00 0.00 0.00 0.01 0.01
0.03 0.03 0.03 0.03 0.03 0.03 0.03 0.03 0.02 0.02 0.02 0.02 0.02 0.02 0.03 0.03 0.03 0.02 0.02 0.02 0.02 0.02 0.02 0.02 0.02 0.02 0.02 0.01 0.01 0.01 0.01 0.01 0.01 0.01 0.01 0.01 0.01 0.01 0.01 0.01 0.01 0.01 0.01
0.03 0.03 0.03 0.03 0.03 0.03 0.03 0.03 0.03 0.03 0.03 0.02 0.02 0.02 0.03 0.03 0.03 0.03 0.02 0.02 0.01 0.02 0.02 0.02 0.02 0.02 0.02 0.02 0.02 0.02 0.02 0.01 0.01 0.01 0.01 0.01 0.01 0.01 0.01 0.01 0.01 0.01 0.01
0.03 0.03 0.02 0.02 0.02 0.02 0.03 0.03 0.03 0.03 0.03 0.03 0.03 0.03 0.03 0.03 0.03 0.03 0.02 0.02 0.02 0.01 0.01 0.01 0.01 0.02 0.02 0.02 0.02 0.02 0.02 0.02 0.02 0.02 0.02 0.01 0.01 0.01 0.01 0.01 0.01 0.01 0.01
0.03 0.02 0.02 0.01 0.02 0.02 0.02 0.02 0.03 0.03 0.03 0.03 0.03 0.03 0.03 0.02 0.02 0.02 0.02 0.02 0.02 0.02 0.01 0.02 0.02 0.02 0.02 0.02 0.02 0.01 0.01 0.01 0.01 0.02 0.02 0.02 0.02 0.02 0.01 0.01 0.02 0.01 0.01
0.02 0.02 0.01 0.01 0.01 0.02 0.02 0.03 0.03 0.03 0.03 0.03 0.03 0.03 0.02 0.02 0.02 0.02 0.02 0.02 0.01 0.01 0.02 0.02 0.02 0.03 0.03 0.02 0.02 0.02 0.01 0.02 0.02 0.02 0.02 0.02 0.02 0.02 0.01 0.01 0.01 0.01 0.01
0.03 0.02 0.02 0.02 0.02 0.03 0.03 0.03 0.04 0.04 0.03 0.03 0.03 0.02 0.02 0.03 0.03 0.03 0.02 0.02 0.01 0.01 0.02 0.02 0.02 0.02 0.02 0.02 0.02 0.02 0.02 0.02 0.02 0.02 0.02 0.02 0.01 0.01 0.01 0.01 0.01 0.01 0.01
0.03 0.02 0.03 0.03 0.04 0.03 0.03 0.04 0.04 0.04 0.04 0.03 0.03 0.03 0.03 0.03 0.03 0.03 0.02 0.02 0.02 0.01 0.01 0.02 0.02 0.02 0.02 0.02 0.02 0.02 0.02 0.02 0.02 0.02 0.02 0.01 0.01 0.01 0.01 0.01 0.01 0.01 0.01
0.04 0.03 0.04 0.04 0.04 0.03 0.03 0.03 0.04 0.04 0.03 0.03 0.03 0.03 0.03 0.03 0.03 0.03 0.03 0.02 0.02 0.02 0.01 0.02 0.02 0.02 0.02 0.02 0.02 0.02 0.02 0.02 0.02 0.02 0.01 0.01 0.01 0.01 0.01 0.01 0.01 0.01 0.01
0.04 0.04 0.04 0.03 0.03 0.03 0.03 0.03 0.03 0.03 0.03 0.03 0.03 0.02 0.02 0.02 0.02 0.02 0.02 0.03 0.02 0.02 0.02 0.02 0.02 0.02 0.02 0.02 0.02 0.02 0.02 0.02 0.02 0.02 0.01 0.01 0.01 0.01 0.01 0.01 0.02 0.02 0.02
MSLP
1015.81 1015.33 1014.84 1014.32 1013.73 1013.07 1012.33 1011.55 1010.79 1010.12 1009.60 1009.29 1009.23 1009.43 1009.87 1010.49 1011.24 1012.06 1012.88 1013.64 1014.32 1014.90 1015.39 1015.81 1016.20 1016.56 1016.94 1017.34 1017.77 1018.23 1018.72 1019.21 1019.69 1020.14 1020.57 1020.94 1021.27 1021.55 1021.78 1021.96 1022.09 1022.19 1022.24
1016.25 1015.82 1015.41 1014.96 1014.45 1013.83 1013.12 1012.34 1011.53 1010.77 1010.11 1009.63 1009.39 1009.39 1009.64 1010.09 1010.72 1011.43 1012.19 1012.92 1013.60 1014.21 1014.74 1015.20 1015.62 1016.02 1016.43 1016.86 1017.32 1017.81 1018.32 1018.84 1019.36 1019.85 1020.30 1020.71 1021.07 1021.38 1021.64 1021.85 1022.02 1022.15 1022.23
1016.63 1016.26 1015.91 1015.53 1015.09 1014.54 1013.88 1013.11 1012.28 1011.45 1010.69 1010.07 1009.65 1009.46 1009.51 1009.78 1010.24 1010.83 1011.49 1012.18 1012.84 1013.46 1014.02 1014.52 1014.99 1015.44 1015.89 1016.36 1016.85 1017.36 1017.89 1018.42 1018.95 1019.45 1019.92 1020.35 1020.74 1021.08 1021.38 1021.65 1021.86 1022.05 1022.19
1016.96 1016.64 1016.34 1016.03 1015.64 1015.15 1014.54 1013.80 1012.98 1012.12 1011.28 1010.55 1009.98 1009.61 1009.47 1009.55 1009.84 1010.27 1010.82 1011.42 1012.05 1012.66 1013.24 1013.78 1014.30 1014.80 1015.30 1015.81 1016.32 1016.84 1017.38 1017.91 1018.42 1018.92 1019.39 1019.84 1020.24 1020.62 1020.97 1021.30 1021.59 1021.86 1022.09
1017.25 1016.96 1016.69 1016.41 1016.07 1015.63 1015.06 1014.37 1013.57 1012.71 1011.84 1011.03 1010.34 1009.83 1009.52 1009.42 1009.52 1009.79 1010.20 1010.70 1011.25 1011.83 1012.41 1012.99 1013.55 1014.10 1014.64 1015.18 1015.72 1016.25 1016.78 1017.29 1017.79 1018.27 1018.73 1019.17 1019.60 1020.02 1020.42 1020.82 1021.20 1021.56 1021.90
1017.51 1017.22 1016.97 1016.70 1016.38 1015.97 1015.44 1014.79 1014.03 1013.20 1012.33 1011.48 1010.73 1010.11 1009.66 1009.40 1009.32 1009.42 1009.67 1010.04 1010.50 1011.02 1011.58 1012.15 1012.73 1013.32 1013.90 1014.47 1015.03 1015.57 1016.09 1016.59 1017.07 1017.53 1017.98 1018.41 1018.86 1019.31 1019.77 1020.24 1020.72 1021.19 1021.64
1017.74 1017.45 1017.18 1016.90 1016.58 1016.18 1015.69 1015.09 1014.38 1013.60 1012.77 1011.93 1011.15 1010.46 1009.90 1009.50 1009.26 1009.19 1009.28 1009.50 1009.84 1010.26 1010.76 1011.31 1011.89 1012.49 1013.09 1013.69 1014.27 1014.83 1015.35 1015.85 1016.32 1016.77 1017.21 1017.65 1018.11 1018.59 1019.10 1019.64 1020.20 1020.77 1021.33
1017.96 1017.65 1017.35 1017.04 1016.70 1016.31 1015.85 1015.30 1014.66 1013.95 1013.18 1012.40 1011.62 1010.91 1010.28 1009.76 1009.38 1009.15 1009.06 1009.12 1009.31 1009.61 1010.02 1010.51 1011.05 1011.64 1012.26 1012.88 1013.48 1014.07 1014.62 1015.14 1015.62 1016.08 1016.53 1016.98 1017.46 1017.97 1018.52 1019.11 1019.74 1020.39 1021.04
1018.17 1017.83 1017.49 1017.15 1016.79 1016.41 1015.97 1015.48 1014.92 1014.29 1013.61 1012.90 1012.17 1011.45 1010.78 1010.19 1009.69 1009.30 1009.05 1008.93 1008.96 1009.11 1009.40 1009.79 1010.28 1010.84 1011.44 1012.08 1012.72 1013.35 1013.95 1014.51 1015.04 1015.53 1016.02 1016.50 1017.00 1017.53 1018.10 1018.73 1019.40 1020.09 1020.80
1018.34 1017.99 1017.62 1017.26 1016.88 1016.50 1016.10 1015.66 1015.18 1014.65 1014.07 1013.44 1012.77 1012.09 1011.41 1010.75 1010.16 1009.64 1009.23 1008.94 1008.79 1008.79 1008.93 1009.21 1009.61 1010.11 1010.71 1011.35 1012.03 1012.71 1013.38 1014.01 1014.61 1015.17 1015.71 1016.23 1016.76 1017.32 1017.91 1018.54 1019.22 1019.92 1020.65
1018.47 1018.11 1017.73 1017.36 1016.98 1016.61 1016.25 1015.87 1015.47 1015.03 1014.55 1014.01 1013.41 1012.77 1012.10 1011.42 1010.75 1010.13 1009.58 1009.14 1008.83 1008.66 1008.65 1008.79 1009.09 1009.53 1010.09 1010.73 1011.44 1012.18 1012.92 1013.64 1014.33 1014.98 1015.59 1016.17 1016.74 1017.32 1017.91 1018.53 1019.19 1019.89 1020.60
1018.54 1018.19 1017.83 1017.45 1017.09 1016.75 1016.42 1016.10 1015.77 1015.41 1015.01 1014.55 1014.03 1013.44 1012.80 1012.11 1011.40 1010.71 1010.06 1009.49 1009.03 1008.71 1008.55 1008.56 1008.75 1009.10 1009.60 1010.23 1010.96 1011.74 1012.56 1013.37 1014.16 1014.90 1015.60 1016.25 1016.87 1017.47 1018.05 1018.66 1019.29 1019.94 1020.62
1018.53 1018.22 1017.88 1017.53 1017.19 1016.88 1016.58 1016.30 1016.03 1015.74 1015.41 1015.02 1014.57 1014.03 1013.42 1012.75 1012.03 1011.30 1010.59 1009.93 1009.36 1008.92 1008.63 1008.52 1008.59 1008.84 1009.27 1009.86 1010.59 1011.40 1012.27 1013.16 1014.03 1014.87 1015.66 1016.38 1017.04 1017.66 1018.26 1018.84 1019.43 1020.04 1020.67
1018.46 1018.18 1017.88 1017.57 1017.26 1016.97 1016.71 1016.46 1016.22 1015.97 1015.69 1015.35 1014.95 1014.47 1013.91 1013.28 1012.59 1011.86 1011.13 1010.42 1009.79 1009.26 1008.86 1008.63 1008.59 1008.74 1009.08 1009.61 1010.30 1011.11 1012.00 1012.94 1013.88 1014.80 1015.66 1016.45 1017.16 1017.81 1018.41 1018.98 1019.54 1020.11 1020.71
1018.31 1018.09 1017.83 1017.55 1017.27 1017.01 1016.76 1016.53 1016.31 1016.07 1015.81 1015.51 1015.16 1014.72 1014.22 1013.65 1013.01 1012.33 1011.62 1010.92 1010.26 1009.68 1009.21 1008.89 1008.74 1008.78 1009.03 1009.47 1010.09 1010.85 1011.73 1012.68 1013.66 1014.62 1015.54 1016.38 1017.14 1017.83 1018.45 1019.02 1019.57 1020.11 1020.68
1018.10 1017.92 1017.70 1017.47 1017.22 1016.97 1016.74 1016.51 1016.28 1016.04 1015.79 1015.50 1015.17 1014.79 1014.35 1013.85 1013.29 1012.68 1012.04 1011.39 1010.75 1010.16 1009.65 1009.26 1009.02 1008.96 1009.09 1009.41 1009.93 1010.62 1011.45 1012.37 1013.34 1014.32 1015.27 1016.16 1016.96 1017.68 1018.33 1018.92 1019.47 1020.02 1020.58
1017.84 1017.70 1017.52 1017.32 1017.10 1016.87 1016.64 1016.40 1016.15 1015.90 1015.64 1015.35 1015.05 1014.71 1014.34 1013.92 1013.45 1012.94 1012.40 1011.82 1011.23 1010.67 1010.15 1009.72 1009.40 1009.23 1009.24 1009.45 1009.85 1010.43 1011.17 1012.03 1012.96 1013.93 1014.88 1015.79 1016.63 1017.39 1018.08 1018.70 1019.28 1019.85 1020.42
1017.53 1017.42 1017.28 1017.11 1016.92 1016.71 1016.47 1016.22 1015.96 1015.69 1015.41 1015.13 1014.84 1014.54 1014.23 1013.90 1013.54 1013.14 1012.70 1012.22 1011.71 1011.19 1010.68 1010.23 1009.85 1009.60 1009.50 1009.58 1009.85 1010.30 1010.93 1011.69 1012.56 1013.49 1014.43 1015.34 1016.21 1017.00 1017.73 1018.40 1019.02 1019.62 1020.23
1017.15 1017.07 1016.97 1016.84 1016.68 1016.48 1016.26 1016.01 1015.74 1015.45 1015.16 1014.88 1014.61 1014.35 1014.10 1013.84 1013.58 1013.29 1012.96 1012.58 1012.16 1011.70 1011.22 1010.76 1010.34 1010.02 1009.82 1009.78 1009.92 1010.24 1010.75 1011.41 1012.19 1013.06 1013.97 1014.88 1015.75 1016.58 1017.34 1018.05 1018.72 1019.37 1020.02
1016.70 1016.66 1016.59 1016.50 1016.38 1016.22 1016.01 1015.77 1015.50 1015.21 1014.92 1014.65 1014.39 1014.16 1013.97 1013.78 1013.60 1013.41 1013.18 1012.90 1012.56 1012.16 1011.73 1011.27 1010.84 1010.46 1010.17 1010.03 1010.06 1010.26 1010.65 1011.20 1011.90 1012.69 1013.55 1014.43 1015.31 1016.16 1016.95 1017.71 1018.42 1019.11 1019.80
1016.16 1016.15 1016.13 1016.09 1016.01 1015.89 1015.72 1015.50 1015.24 1014.96 1014.68 1014.42 1014.18 1013.99 1013.83 1013.71 1013.60 1013.49 1013.34 1013.15 1012.89 1012.55 1012.16 1011.72 1011.28 1010.86 1010.53 1010.31 1010.24 1010.34 1010.62 1011.07 1011.67 1012.40 1013.20 1014.05 1014.91 1015.76 1016.58 1017.36 1018.12 1018.85 1019.58
1015.53 1015.55 1015.58 1015.58 1015.55 1015.47 1015.34 1015.16 1014.93 1014.67 1014.41 1014.16 1013.95 1013.79 1013.67 1013.59 1013.54 1013.49 1013.41 1013.28 1013.08 1012.81 1012.46 1012.05 1011.62 1011.20 1010.83 1010.55 1010.42 1010.44 1010.63 1010.99 1011.51 1012.16 1012.91 1013.71 1014.55 1015.39 1016.21 1017.02 1017.79 1018.56 1019.32
1014.82 1014.87 1014.93 1014.97 1014.99 1014.95 1014.86 1014.71 1014.51 1014.28 1014.05 1013.83 1013.64 1013.51 1013.42 1013.38 1013.37 1013.36 1013.34 1013.26 1013.12 1012.89 1012.59 1012.22 1011.81 1011.40 1011.03 1010.73 1010.55 1010.52 1010.64 1010.93 1011.37 1011.95 1012.63 1013.39 1014.19 1015.01 1015.83 1016.64 1017.43 1018.22 1018.99
1014.04 1014.10 1014.18 1014.26 1014.30 1014.29 1014.23 1014.11 1013.95 1013.75 1013.55 1013.35 1013.20 1013.09 1013.03 1013.02 1013.04 1013.08 1013.09 1013.06 1012.96 1012.79 1012.53 1012.21 1011.84 1011.46 1011.09 1010.79 1010.60 1010.53 1010.60 1010.84 1011.21 1011.72 1012.34 1013.04 1013.80 1014.59 1015.39 1016.20 1017.00 1017.79 1018.59
1013.21 1013.28 1013.36 1013.44 1013.49 1013.50 1013.46 1013.36 1013.22 1013.05 1012.88 1012.72 1012.59 1012.51 1012.48 1012.50 1012.55 1012.62 1012.67 1012.68 1012.63 1012.50 1012.30 1012.03 1011.71 1011.36 1011.03 1010.75 1010.55 1010.46 1010.50 1010.68 1011.01 1011.45 1012.01 1012.66 1013.37 1014.12 1014.90 1015.69 1016.49 1017.30 1018.11
1012.38 1012.42 1012.49 1012.55 1012.59 1012.59 1012.55 1012.47 1012.34 1012.20 1012.05 1011.92 1011.83 1011.78 1011.78 1011.83 1011.91 1012.01 1012.10 1012.15 1012.15 1012.07 1011.92 1011.71 1011.44 1011.15 1010.85 1010.59 1010.41 1010.31 1010.33 1010.47 1010.74 1011.13 1011.63 1012.22 1012.88 1013.60 1014.35 1015.13 1015.93 1016.74 1017.57
Thickness
5545 5547 5549 5550 5551 5552 5554 5555 5556 5556 5556 5555 5554 5553 5552 5550 5549 5547 5545 5543 5540 5538 5536 5533 5531 5528 5524 5521 5517 5513 5509 5505 5503 5505 5503 5501 5497 5494 5491 5487 5484 5480 5476
5534 5536 5538 5540 5541 5542 5543 5545 5545 5546 5546 5546 5545 5544 5543 5541 5540 5538 5536 5534 5531 5529 5527 5524 5522 5518 5515 5512 5508 5505 5501 5497 5494 5494 5494 5491 5488 5485 5482 5479 5476 5472 5468
5523 5525 5526 5527 5529 5531 5532 5534 5535 5535 5536 5535 5535 5535 5533 5532 5530 5529 5527 5525 5523 5520 5518 5515 5513 5509 5505 5502 5499 5496 5493 5490 5486 5484 5483 5481 5479 5476 5474 5471 5467 5463 5460
5511 5513 5514 5515 5517 5519 5521 5523 5524 5525 5525 5525 5525 5524 5523 5522 5521 5519 5518 5516 5514 5512 5509 5506 5503 5500 5496 5493 5491 5488 5485 5482 5479 5476 5474 5472 5469 5467 5463 5462 5461 5457 5454
5499 5501 5502 5504 5505 5507 5510 5511 5513 5513 5514 5514 5514 5514 5513 5511 5511 5510 5508 5506 5504 5502 5500 5497 5494 5491 5488 5485 5483 5480 5478 5475 5472 5469 5466 5463 5461 5457 5454 5452 5450 5449 5448
5487 5488 5490 5492 5494 5496 5498 5499 5501 5501 5502 5503 5503 5503 5502 5501 5500 5500 5498 5496 5495 5493 5491 5488 5486 5483 5480 5477 5474 5472 5470 5467 5464 5460 5457 5454 5452 5448 5445 5443 5440 5439 5440
5475 5477 5478 5480 5481 5484 5486 5488 5489 5490 5491 5491 5492 5492 5491 5489 5490 5489 5488 5487 5486 5484 5482 5480 5478 5475 5472 5470 5467 5465 5462 5459 5456 5452 5449 5446 5443 5440 5438 5436 5433 5430 5427
5463 5465 5466 5467 5469 5472 5474 5475 5477 5478 5478 5479 5480 5480 5480 5479 5479 5479 5478 5476 5476 5474 5473 5471 5468 5466 5464 5462 5460 5457 5454 5451 5449 5446 5443 5440 5436 5432 5430 5427 5424 5423 5422
5450 5452 5454 5456 5458 5460 5461 5463 5464 5465 5466 5467 5468 5468 5468 5468 5468 5468 5468 5466 5465 5464 5463 5461 5459 5457 5456 5455 5452 5450 5447 5444 5442 5439 5436 5432 5429 5426 5423 5420 5418 5417 5416
5437 5440 5442 5444 5446 5447 5449 5450 5452 5453 5454 5455 5456 5456 5457 5456 5456 5457 5457 5456 5455 5454 5453 5451 5450 5449 5448 5446 5444 5442 5439 5437 5435 5432 5429 5426 5423 5420 5417 5413 5410 5408 5407
5425 5427 5429 5431 5433 5435 5437 5438 5440 5441 5442 5443 5444 5444 5444 5445 5445 5446 5446 5446 5445 5444 5443 5442 5440 5440 5440 5438 5436 5434 5431 5429 5426 5423 5421 5419 5416 5413 5410 5407 5404 5401 5399
5412 5414 5417 5419 5421 5423 5425 5426 5428 5430 5431 5431 5432 5432 5432 5433 5434 5435 5436 5436 5435 5434 5434 5433 5432 5432 5431 5429 5427 5426 5423 5421 5417 5415 5412 5410 5408 5405 5403 5401 5399 5397 5394
5399 5401 5404 5406 5409 5411 5413 5414 5416 5418 5419 5420 5421 5421 5422 5422 5423 5424 5425 5425 5424 5424 5424 5424 5423 5422 5421 5419 5418 5416 5414 5411 5408 5406 5403 5401 5399 5397 5396 5395 5394 5393 5392
5387 5389 5391 5394 5396 5399 5401 5403 5404 5406 5408 5409 5410 5411 5411 5411 5412 5413 5413 5413 5413 5413 5413 5413 5413 5412 5411 5410 5409 5407 5405 5402 5399 5396 5394 5393 5392 5390 5389 5388 5387 5387 5387
5376 5378 5380 5383 5385 5387 5389 5391 5392 5395 5398 5399 5400 5401 5401 5401 5403 5403 5403 5403 5403 5403 5403 5402 5402 5401 5401 5400 5399 5397 5396 5393 5390 5388 5387 5386 5384 5384 5383 5382 5380 5380 5380
5366 5367 5369 5371 5373 5375 5377 5379 5382 5384 5387 5389 5391 5391 5392 5393 5393 5393 5393 5393 5394 5394 5393 5392 5392 5391 5391 5390 5389 5388 5386 5384 5382 5381 5379 5378 5377 5377 5377 5376 5375 5374 5375
5356 5358 5359 5361 5363 5365 5367 5369 5371 5373 5376 5378 5380 5382 5382 5383 5383 5383 5384 5384 5384 5384 5383 5383 5382 5382 5381 5381 5380 5378 5377 5376 5374 5373 5372 5371 5370 5370 5370 5370 5370 5369 5369
5348 5349 5351 5352 5354 5356 5357 5360 5362 5364 5365 5367 5370 5372 5373 5374 5375 5375 5375 5375 5374 5374 5374 5373 5373 5373 5373 5372 5371 5370 5369 5368 5367 5366 5365 5364 5364 5364 5365 5364 5364 5364 5365
5339 5341 5342 5343 5345 5347 5348 5351 5353 5355 5356 5358 5360 5362 5364 5365 5366 5366 5366 5365 5365 5365 5365 5364 5364 5364 5364 5363 5362 5362 5361 5361 5360 5360 5359 5359 5359 5359 5360 5360 5360 5360 5361
5332 5333 5334 5335 5336 5338 5340 5342 5344 5346 5347 5349 5351 5353 5355 5355 5355 5356 5356 5356 5356 5356 5356 5356 5356 5356 5356 5355 5355 5355 5354 5354 5354 5354 5354 5354 5354 5355 5355 5356 5356 5357 5357
5323 5325 5327 5327 5328 5330 5331 5333 5335 5337 5339 5341 5342 5345 5347 5347 5347 5347 5347 5347 5347 5348 5348 5348 5348 5348 5348 5348 5348 5348 5348 5348 5349 5349 5349 5349 5350 5351 5352 5352 5353 5353 5354
5316 5317 5318 5319 5321 5322 5324 5326 5327 5329 5331 5332 5333 5336 5338 5338 5338 5338 5338 5339 5339 5339 5340 5340 5341 5341 5341 5342 5342 5343 5343 5344 5344 5345 5346 5346 5347 5348 5349 5350 5350 5351 5351
5311 5311 5312 5313 5314 5316 5317 5318 5319 5321 5323 5324 5325 5327 5328 5329 5330 5330 5331 5331 5331 5332 5333 5334 5334 5335 5335 5336 5337 5338 5339 5340 5340 5342 5343 5343 5344 5345 5346 5347 5348 5348 5349
5304 5305 5305 5306 5307 5308 5309 5311 5312 5314 5315 5317 5317 5319 5320 5321 5322 5323 5323 5324 5324 5325 5326 5327 5328 5329 5330 5331 5332 5334 5335 5337 5338 5339 5340 5341 5342 5343 5344 5344 5345 5346 5347
5298 5299 5300 5300 5301 5302 5303 5304 5306 5307 5308 5310 5311 5312 5312 5314 5315 5316 5317 5318 5319 5319 5321 5322 5323 5324 5326 5327 5329 5331 5333 5334 5336 5337 5338 5339 5340 5341 5342 5343 5344 5345 5346
5291 5293 5294 5295 5296 5297 5298 5298 5300 5301 5302 5303 5304 5305 5306 5307 5308 5310 5311 5312 5314 5315 5316 5317 5318 5320 5322 5324 5326 5328 5330 5332 5334 5335 5336 5337 5338 5339 5340 5341 5343 5344 5345